Location: Góry Miechowskie
(50.3599°N, 20.1803°E)
Time: 01:24:33
(UTC+00:00)

S-56A Canister/Altair - Pass Details

Date: 20 September 2024
Orbit: 636 x 2487 km, 38.9° (Epoch: 15 October)

Event Time Altitude Azimuth Distance (km) Brightness Sun altitude
Rises 16:44:33 0° 235° (SW) 3,051 11.6 -1.4°
Reaches altitude 10° 16:47:01 10° 221° (SW) 2,255 10.5 -1.8°
Maximum altitude 16:51:16 26° 165° (SSE) 1,671 9.1 -2.5°
Drops below altitude 10° 16:56:45 10° 112° (ESE) 2,972 9.9 -3.3°
Enters shadow 16:59:04 - 105° (ESE) 3,756 10.4 -3.7°
Sets 17:00:31 0° 102° (ESE) 4,264 - -3.9°
